Location: Brookfield Village
(37.7352°N, 122.1861°W)
Time: 05:51:27
(UTC+00:00)

Cosmos 1125 Rocket - Pass Details

Date: 03 August 2024
Orbit: 756 x 776 km, 74.0° (Epoch: 14 September)

Event Time Altitude Azimuth Distance (km) Brightness Sun altitude
Rises 12:27:50 0° 337° (NNW) 3,228 6.8 -9.1°
Reaches altitude 10° 12:30:15 10° 333° (NNW) 2,296 6.0 -8.7°
Maximum altitude 12:35:20 56° 256° (WSW) 894 3.6 -7.8°
Drops below altitude 10° 12:40:22 10° 179° (S) 2,273 5.7 -7.0°
Sets 12:42:45 0° 175° (S) 3,193 6.5 -6.5°
